Location: Newark
(46.4658°N, 0.0697°E)
Time: 00:27:31
(UTC+00:00)

ISS - Visible Passes

Search period start: 24 October 2019 00:00
Search period end: 03 November 2019 00:00
Orbit: 411 x 421 km, 51.6° (Epoch: 24 October)

Date Brightness Start Highest point End Pass type
(mag) Time Alt. Az. Time Alt. Az. Time Alt. Az.
25 Oct -2.0 05:34:38 10° SSW 05:37:42 33° SE 05:40:46 10° ENE visible
26 Oct -1.4 04:46:46 11° S 04:49:15 21° SE 04:51:51 10° E visible
27 Oct -0.9 04:00:48 13° SE 04:00:50 13° SE 04:02:31 10° ESE visible
27 Oct -3.6 05:33:44 10° SW 05:37:05 76° SSE 05:40:27 10° ENE visible
28 Oct -3.0 04:47:35 36° SSW 04:48:30 48° SE 04:51:46 10° ENE visible
29 Oct -1.3 04:01:17 22° E 04:01:17 22° E 04:02:58 10° ENE visible
29 Oct -3.5 05:34:11 17° W 05:36:34 56° NNW 05:39:54 10° ENE visible
30 Oct -3.9 04:47:47 77° NW 04:47:53 78° NNW 04:51:15 10° ENE visible
31 Oct -1.2 04:01:16 22° ENE 04:01:16 22° ENE 04:02:35 10° ENE visible
31 Oct -2.9 05:34:10 19° WNW 05:36:09 37° N 05:39:19 10° ENE visible
01 Nov -3.1 04:47:35 44° N 04:47:35 44° N 04:50:38 10° ENE visible
02 Nov -1.0 04:00:57 18° NE 04:00:57 18° NE 04:01:58 10° ENE visible
02 Nov -2.6 05:33:50 18° NW 05:35:45 32° N 05:38:50 10° ENE visible
